CZ-6A DEB

Satellite information

Favourite Embed

Satellite Type and Status

DEBRISIN ORBIT

Key statistics

Satellite CZ-6A DEB at a glance.

Uptime

1089

Days in orbit

Revolutions

≈ 14.5

Per day

Orbit

SSO

Sun Synchronous Orbit

Inclination

98.5

Latest

Satellite identification and parameters

Extended collection of information and parameters for CZ-6A DEB.

Object identification

Identified? True

Debris? True

Object name: CZ-6A DEB

International designator: 2022-151ADC

Object number (NORAD): 56284

Object ID (CCSDS): 56284

Country: PEOPLES REPUBLIC OF CHINA (PRC)

Current information (Y/N): Y

RCS size: SMALL

Orbital parameters

Period: 99.116 minutes

Inclination: 98.5444 deg

SMA: 7094.535 km

Apoapsis: 813.443 km

Periapsis: 619.358 km

RAAN: 333.8553 deg

Eccentricy: 0.0136785

Argument of periapsis: 294.8467 deg

Mean anomaly: 63.8556 deg

Mean motion: 14.52836745 rev/day

Mean motion (dot): 0.00006446 rev/day2

B* drag term: 0.0013968 1/REarth

Two-line elements (TLE)

Creation date: Nov. 2, 2025, 4:16 p.m.

Reference frame: TEME

Reference center: EARTH

Epoch: Nov. 2, 2025, 8:22 a.m. UTC

TLE line 0: 0 CZ-6A DEB

TLE line 1: 1 56284U 22151ADC 25306.34924390 .00006446 00000-0 13968-2 0 9995

TLE line 2: 2 56284 98.5444 333.8553 0136785 294.8467 63.8556 14.52836745136920

Live tracking on map

Real-time ground track for satellite CZ-6A DEB.

In-orbit conjunctions

A list of the most updated potential collisions computed for object CZ-6A DEB.

Target Orbit TCA Probability of collision Miss distance Type
COSMOS 2251 DEB LEO 2025-07-28 05:11:47 0.0004027588 104.0 (m) DEBRIS
AUREOLE 2 LEO 2024-09-12 05:27:37 0.0001157688 241.0 (m) PAYLOAD
SL-16 R/B LEO 2024-07-27 02:30:32 0.0001385075 357.0 (m) ROCKET BODY

Associated space launch

Chinese satellite reported for atmospheric/ocean/environmental/spatial parameter research purposes, details TBD.

CZ-6A DEB was lifted into orbit during the mission ‘Long March 6A | Yunhai 3’, on board a Long March 6A space rocket.

The launch took place on Nov. 11, 2022, 10:52 p.m. from Launch Complex 9A.

For more information about the launch, click the button.

Launch to space Long March 6A | Yunhai 3
Long March 6A | Yunhai 3

Agency: N/A

Status: Launch Successful

Launch date: Nov. 11, 2022, 10:52 p.m. UTC

Rocket: Long March 6A

Launch pad: Launch Complex 9A

Location: Taiyuan Satellite Launch Center, People's Republic of China

...

Latest news about this satellite

There are no fresh news available about this satellite. Check back as we update our databases every day.


Newsletter sign-up

Weekly statistics, charts and insights to help you stay on top of the space industry.